| time (UTC) | temp C | wind direction | speed KPH | gust KPH | rain 1hr cm | rain 24hr cm | rain mn cm | humidity % | barometer mb |
| 20260503195507 | 28 | 37 | 1.6 | 4.8 | 0.00 | 0.00 | 0.00 | 35 | 1008.7 |
| 20260503195003 | 28 | 62 | 1.6 | 1.6 | 0.00 | 0.00 | 0.00 | 37 | 1008.8 |
| 20260503194500 | 28 | 137 | 1.6 | 3.2 | 0.00 | 0.00 | 0.00 | 37 | 1008.7 |
| 20260503193955 | 28 | 83 | 3.2 | 4.8 | 0.00 | 0.00 | 0.00 | 36 | 1008.7 |
| 20260503193451 | 27 | 111 | 0.0 | 1.6 | 0.00 | 0.00 | 0.00 | 39 | 1008.8 |
| 20260503192947 | 27 | 76 | 3.2 | 3.2 | 0.00 | 0.00 | 0.00 | 38 | 1008.9 |
| 20260503192443 | 28 | 357 | 0.0 | 1.6 | 0.00 | 0.00 | 0.00 | 38 | 1008.9 |
| 20260503191939 | 28 | 28 | 3.2 | 3.2 | 0.00 | 0.00 | 0.00 | 39 | 1009.1 |
| 20260503191437 | 27 | 68 | 4.8 | 6.4 | 0.00 | 0.00 | 0.00 | 39 | 1009.0 |
| 20260503190933 | 27 | 67 | 1.6 | 1.6 | 0.00 | 0.00 | 0.00 | 40 | 1009.0 |
| 20260503190430 | 27 | 26 | 4.8 | 6.4 | 0.00 | 0.00 | 0.00 | 40 | 1009.1 |
| 20260503185927 | 27 | 89 | 3.2 | 4.8 | 0.00 | 0.00 | 0.00 | 41 | 1009.3 |
| 20260503185424 | 27 | 154 | 4.8 | 4.8 | 0.00 | 0.00 | 0.00 | 40 | 1009.3 |
| 20260503184923 | 26 | 55 | 1.6 | 1.6 | 0.00 | 0.00 | 0.00 | 42 | 1009.3 |
| 20260503184420 | 26 | 83 | 1.6 | 3.2 | 0.00 | 0.00 | 0.00 | 43 | 1009.4 |
| 20260503183916 | 26 | 34 | 1.6 | 4.8 | 0.00 | 0.00 | 0.00 | 43 | 1009.5 |
| 20260503183412 | 26 | 349 | 4.8 | 4.8 | 0.00 | 0.00 | 0.00 | 44 | 1009.4 |
| 20260503182910 | 26 | 90 | 1.6 | 1.6 | 0.00 | 0.00 | 0.00 | 45 | 1009.4 |
| 20260503182409 | 26 | 40 | 6.4 | 6.4 | 0.00 | 0.00 | 0.00 | 44 | 1009.4 |
| 20260503181905 | 26 | 9 | 4.8 | 6.4 | 0.00 | 0.00 | 0.00 | 45 | 1009.6 |
| 20260503181402 | 25 | 49 | 0.0 | 0.0 | 0.00 | 0.00 | 0.00 | 45 | 1009.5 |
| 20260503180859 | 25 | 119 | 1.6 | 3.2 | 0.00 | 0.00 | 0.00 | 45 | 1009.6 |
| 20260503180357 | 25 | 66 | 3.2 | 4.8 | 0.00 | 0.00 | 0.00 | 46 | 1009.7 |
| 20260503175853 | 25 | 77 | 3.2 | 6.4 | 0.00 | 0.00 | 0.00 | 47 | 1009.7 |
| 20260503175351 | 25 | 121 | 1.6 | 1.6 | 0.00 | 0.00 | 0.00 | 48 | 1009.7 |
| 20260503174847 | 24 | 57 | 3.2 | 4.8 | 0.00 | 0.00 | 0.00 | 50 | 1009.7 |
| 20260503174345 | 24 | 47 | 1.6 | 1.6 | 0.00 | 0.00 | 0.00 | 50 | 1009.8 |
| 20260503173845 | 24 | 52 | 6.4 | 6.4 | 0.00 | 0.00 | 0.00 | 49 | 1009.9 |
| 20260503173342 | 25 | 65 | 6.4 | 14.5 | 0.00 | 0.00 | 0.00 | 48 | 1009.9 |
| 20260503172838 | 24 | 94 | 0.0 | 0.0 | 0.00 | 0.00 | 0.00 | 46 | 1009.9 |
| 20260503172336 | 25 | 105 | 0.0 | 0.0 | 0.00 | 0.00 | 0.00 | 52 | 1009.9 |
| 20260503171832 | 23 | 69 | 0.0 | 0.0 | 0.00 | 0.00 | 0.00 | 57 | 1009.9 |
| 20260503171329 | 23 | 42 | 1.6 | 1.6 | 0.00 | 0.00 | 0.00 | 56 | 1009.9 |
| 20260503170826 | 23 | 254 | 1.6 | 3.2 | 0.00 | 0.00 | 0.00 | 58 | 1009.8 |
| 20260503170322 | 22 | 32 | 0.0 | 0.0 | 0.00 | 0.00 | 0.00 | 64 | 1009.9 |
| 20260503150715 | 14 | 92 | 0.0 | 0.0 | 0.00 | 0.00 | 0.00 | 86 | 1010.6 |
| 20260503150211 | 13 | 98 | 1.6 | 1.6 | 0.00 | 0.00 | 0.00 | 89 | 1010.7 |
| 20260503140136 | 11 | 76 | 0.0 | 0.0 | 0.00 | 0.00 | 0.00 | 96 | 1010.4 |
| 20260503131105 | 10 | 76 | 0.0 | 0.0 | 0.00 | 0.00 | 0.00 | 99 | 1010.1 |
| 20260503130602 | 10 | 87 | 0.0 | 0.0 | 0.00 | 0.00 | 0.00 | 99 | 1010.1 |
| 20260503110453 | 10 | 45 | 0.0 | 0.0 | 0.00 | 0.00 | 0.00 | 98 | 1010.3 |
| 20260503090344 | 12 | 26 | 0.0 | 0.0 | 0.00 | 0.00 | 0.00 | 95 | 1010.9 |
| 20260503081311 | 12 | 39 | 0.0 | 0.0 | 0.00 | 0.00 | 0.00 | 94 | 1011.3 |
| 20260503080808 | 12 | 60 | 0.0 | 0.0 | 0.00 | 0.00 | 0.00 | 93 | 1011.1 |
| 20260503080305 | 12 | 66 | 0.0 | 0.0 | 0.00 | 0.00 | 0.00 | 93 | 1011.1 |
| 20260503072741 | 13 | 21 | 0.0 | 0.0 | 0.00 | 0.00 | 0.00 | 91 | 1011.3 |
| 20260503072238 | 13 | 93 | 0.0 | 0.0 | 0.00 | 0.00 | 0.00 | 91 | 1011.4 |
| 20260503071734 | 13 | 84 | 0.0 | 1.6 | 0.00 | 0.00 | 0.00 | 91 | 1011.2 |
| 20260503071231 | 13 | 46 | 0.0 | 0.0 | 0.00 | 0.00 | 0.00 | 91 | 1011.2 |
| 20260503070728 | 13 | 136 | 1.6 | 3.2 | 0.00 | 0.00 | 0.00 | 90 | 1011.3 |
| 20260503070226 | 13 | 96 | 3.2 | 3.2 | 0.00 | 0.00 | 0.00 | 91 | 1011.2 |
| 20260503060151 | 14 | 51 | 0.0 | 0.0 | 0.00 | 0.00 | 0.00 | 87 | 1011.1 |
| 20260503054638 | 15 | 56 | 0.0 | 0.0 | 0.00 | 0.00 | 0.00 | 85 | 1011.2 |
| 20260503054135 | 15 | 0 | 0.0 | 1.6 | 0.00 | 0.00 | 0.00 | 85 | 1011.2 |
| 20260503053633 | 15 | 280 | 3.2 | 3.2 | 0.00 | 0.00 | 0.00 | 85 | 1011.4 |
| 20260503053132 | 15 | 55 | 0.0 | 0.0 | 0.00 | 0.00 | 0.00 | 84 | 1011.4 |
| 20260503052627 | 15 | 56 | 0.0 | 0.0 | 0.00 | 0.00 | 0.00 | 84 | 1011.2 |
| 20260503052124 | 15 | 49 | 0.0 | 0.0 | 0.00 | 0.00 | 0.00 | 83 | 1011.4 |
| 20260503051619 | 16 | 121 | 0.0 | 1.6 | 0.00 | 0.00 | 0.00 | 81 | 1011.3 |
| 20260503051118 | 16 | 120 | 4.8 | 4.8 | 0.00 | 0.00 | 0.00 | 79 | 1011.3 |
| 20260503050614 | 16 | 81 | 0.0 | 0.0 | 0.00 | 0.00 | 0.00 | 78 | 1011.4 |
| 20260503050110 | 16 | 70 | 0.0 | 0.0 | 0.00 | 0.00 | 0.00 | 78 | 1011.0 |
| 20260503045608 | 16 | 103 | 0.0 | 1.6 | 0.00 | 0.00 | 0.00 | 78 | 1011.1 |
| 20260503045105 | 16 | 139 | 1.6 | 1.6 | 0.00 | 0.00 | 0.00 | 78 | 1011.0 |
| 20260503044601 | 16 | 63 | 0.0 | 0.0 | 0.00 | 0.00 | 0.00 | 78 | 1010.8 |
| 20260503044059 | 16 | 41 | 1.6 | 1.6 | 0.00 | 0.00 | 0.00 | 78 | 1010.6 |
| 20260503043555 | 16 | 347 | 0.0 | 1.6 | 0.00 | 0.00 | 0.00 | 77 | 1010.8 |
| 20260503043052 | 17 | 84 | 0.0 | 0.0 | 0.00 | 0.00 | 0.00 | 77 | 1010.8 |
| 20260503042549 | 17 | 60 | 0.0 | 0.0 | 0.00 | 0.00 | 0.00 | 77 | 1010.8 |
| 20260503042045 | 17 | 317 | 1.6 | 4.8 | 0.00 | 0.00 | 0.00 | 77 | 1010.8 |
| 20260503041543 | 17 | 11 | 0.0 | 1.6 | 0.00 | 0.00 | 0.00 | 76 | 1010.7 |
| 20260503041040 | 17 | 23 | 1.6 | 1.6 | 0.00 | 0.00 | 0.00 | 76 | 1010.6 |
| 20260503040537 | 17 | 56 | 0.0 | 1.6 | 0.00 | 0.00 | 0.00 | 76 | 1010.7 |
| 20260503040034 | 17 | 12 | 4.8 | 6.4 | 0.00 | 0.00 | 0.00 | 76 | 1010.7 |
| 20260503035531 | 17 | 35 | 3.2 | 3.2 | 0.00 | 0.00 | 0.00 | 76 | 1010.8 |
| 20260503035029 | 17 | 352 | 1.6 | 3.2 | 0.00 | 0.00 | 0.00 | 76 | 1010.8 |
| 20260503034525 | 17 | 339 | 3.2 | 3.2 | 0.00 | 0.00 | 0.00 | 75 | 1010.6 |
| 20260503034022 | 17 | 48 | 0.0 | 0.0 | 0.00 | 0.00 | 0.00 | 75 | 1010.5 |
| 20260503033520 | 17 | 0 | 0.0 | 1.6 | 0.00 | 0.00 | 0.00 | 74 | 1010.6 |
| 20260503033018 | 17 | 33 | 1.6 | 1.6 | 0.00 | 0.00 | 0.00 | 74 | 1010.6 |
| 20260503032516 | 17 | 4 | 3.2 | 4.8 | 0.00 | 0.00 | 0.00 | 73 | 1010.5 |
| 20260503032014 | 17 | 28 | 3.2 | 3.2 | 0.00 | 0.00 | 0.00 | 73 | 1010.3 |
| 20260503031511 | 17 | 22 | 1.6 | 1.6 | 0.00 | 0.00 | 0.00 | 73 | 1010.3 |
| 20260503031008 | 18 | 44 | 1.6 | 3.2 | 0.00 | 0.00 | 0.00 | 73 | 1010.6 |
| 20260503030504 | 18 | 60 | 0.0 | 0.0 | 0.00 | 0.00 | 0.00 | 73 | 1010.4 |
| 20260503030001 | 18 | 304 | 4.8 | 4.8 | 0.00 | 0.00 | 0.00 | 73 | 1010.5 |
| 20260503025458 | 18 | 38 | 4.8 | 6.4 | 0.00 | 0.00 | 0.00 | 72 | 1010.5 |
| 20260503024956 | 18 | 350 | 4.8 | 6.4 | 0.00 | 0.00 | 0.00 | 72 | 1010.6 |
| 20260503024451 | 18 | 29 | 3.2 | 3.2 | 0.00 | 0.00 | 0.00 | 72 | 1010.6 |
| 20260503023949 | 18 | 353 | 1.6 | 1.6 | 0.00 | 0.00 | 0.00 | 72 | 1010.7 |
| 20260503023446 | 18 | 351 | 3.2 | 4.8 | 0.00 | 0.00 | 0.00 | 72 | 1010.7 |
| 20260503022943 | 18 | 308 | 1.6 | 3.2 | 0.00 | 0.00 | 0.00 | 72 | 1011.2 |
| 20260503022437 | 18 | 69 | 0.0 | 0.0 | 0.00 | 0.00 | 0.00 | 72 | 1011.1 |
| 20260503021934 | 18 | 55 | 0.0 | 0.0 | 0.00 | 0.00 | 0.00 | 71 | 1011.3 |
| 20260503021430 | 18 | 108 | 0.0 | 0.0 | 0.00 | 0.00 | 0.00 | 71 | 1011.5 |
| 20260503020928 | 18 | 149 | 1.6 | 1.6 | 0.00 | 0.00 | 0.00 | 71 | 1011.8 |
| 20260503020425 | 18 | 210 | 8.0 | 11.3 | 0.00 | 0.00 | 0.00 | 70 | 1011.7 |
| 20260503015922 | 18 | 205 | 8.0 | 12.9 | 0.00 | 0.00 | 0.00 | 71 | 1011.6 |
| 20260503015419 | 18 | 169 | 11.3 | 16.1 | 0.00 | 0.00 | 0.00 | 71 | 1011.6 |
| 20260503014914 | 18 | 193 | 6.4 | 9.7 | 0.00 | 0.00 | 0.00 | 71 | 1011.4 |
| 20260503014412 | 18 | 106 | 3.2 | 4.8 | 0.00 | 0.00 | 0.00 | 71 | 1011.2 |
| 20260503013910 | 19 | 203 | 3.2 | 3.2 | 0.00 | 0.00 | 0.00 | 70 | 1010.7 |
| 20260503013406 | 20 | 248 | 1.6 | 4.8 | 0.00 | 0.00 | 0.00 | 68 | 1010.8 |
| 20260503012903 | 20 | 261 | 4.8 | 6.4 | 0.00 | 0.00 | 0.00 | 67 | 1010.7 |
| 20260503012401 | 20 | 161 | 1.6 | 1.6 | 0.00 | 0.00 | 0.00 | 68 | 1010.7 |
| 20260503011857 | 20 | 129 | 3.2 | 3.2 | 0.00 | 0.00 | 0.00 | 65 | 1010.6 |
| 20260503011355 | 19 | 169 | 1.6 | 3.2 | 0.00 | 0.00 | 0.00 | 67 | 1010.7 |
| 20260503010851 | 20 | 91 | 0.0 | 1.6 | 0.00 | 0.00 | 0.00 | 66 | 1010.6 |
| 20260503010348 | 20 | 225 | 1.6 | 3.2 | 0.00 | 0.00 | 0.00 | 66 | 1010.5 |
| 20260503005845 | 20 | 169 | 6.4 | 6.4 | 0.00 | 0.00 | 0.00 | 66 | 1010.6 |
| 20260503005343 | 20 | 188 | 6.4 | 9.7 | 0.00 | 0.00 | 0.00 | 65 | 1010.5 |
| 20260503004838 | 20 | 229 | 1.6 | 3.2 | 0.00 | 0.00 | 0.00 | 67 | 1010.4 |
| 20260503004336 | 20 | 162 | 4.8 | 6.4 | 0.00 | 0.00 | 0.00 | 65 | 1010.4 |
| 20260503003833 | 20 | 194 | 3.2 | 4.8 | 0.00 | 0.00 | 0.00 | 66 | 1010.2 |
| 20260503003330 | 20 | 356 | 0.0 | 1.6 | 0.00 | 0.00 | 0.00 | 67 | 1010.2 |
| 20260503002827 | 20 | 255 | 1.6 | 3.2 | 0.00 | 0.00 | 0.00 | 67 | 1010.1 |
| 20260503002324 | 20 | 154 | 3.2 | 3.2 | 0.00 | 0.00 | 0.00 | 66 | 1010.2 |
| 20260503001821 | 20 | 159 | 3.2 | 3.2 | 0.00 | 0.00 | 0.00 | 67 | 1010.1 |
| 20260503001317 | 20 | 127 | 1.6 | 3.2 | 0.00 | 0.00 | 0.00 | 67 | 1010.2 |
| 20260503000815 | 20 | 68 | 0.0 | 1.6 | 0.00 | 0.00 | 0.00 | 65 | 1010.5 |
| 20260503000312 | 20 | 0 | 0.0 | 1.6 | 0.00 | 0.00 | 0.00 | 66 | 1010.3 |
| 20260502235809 | 19 | 50 | 1.6 | 1.6 | 0.00 | 0.00 | 0.00 | 67 | 1010.4 |
| 20260502235306 | 20 | 166 | 1.6 | 1.6 | 0.00 | 0.00 | 0.00 | 65 | 1010.4 |
| 20260502234803 | 20 | 55 | 0.0 | 0.0 | 0.00 | 0.00 | 0.00 | 66 | 1010.3 |
| 20260502234300 | 20 | 242 | 3.2 | 3.2 | 0.00 | 0.00 | 0.00 | 65 | 1010.4 |
| 20260502233755 | 20 | 220 | 1.6 | 1.6 | 0.00 | 0.00 | 0.00 | 65 | 1010.5 |
| 20260502233253 | 20 | 252 | 3.2 | 4.8 | 0.00 | 0.00 | 0.00 | 64 | 1010.6 |
| 20260502232749 | 20 | 116 | 3.2 | 3.2 | 0.00 | 0.00 | 0.00 | 64 | 1010.8 |
| 20260502232246 | 20 | 117 | 0.0 | 0.0 | 0.00 | 0.00 | 0.00 | 62 | 1010.8 |
| 20260502231742 | 20 | 306 | 1.6 | 3.2 | 0.00 | 0.00 | 0.00 | 62 | 1011.0 |
| 20260502231240 | 20 | 133 | 3.2 | 4.8 | 0.00 | 0.00 | 0.00 | 61 | 1011.0 |
| 20260502230739 | 21 | 268 | 4.8 | 4.8 | 0.00 | 0.00 | 0.00 | 60 | 1010.9 |
| 20260502230237 | 21 | 183 | 1.6 | 3.2 | 0.00 | 0.00 | 0.00 | 62 | 1011.2 |
| 20260502225732 | 20 | 154 | 3.2 | 4.8 | 0.00 | 0.00 | 0.00 | 62 | 1011.2 |
| 20260502225230 | 21 | 172 | 3.2 | 4.8 | 0.00 | 0.00 | 0.00 | 60 | 1011.2 |
| 20260502224726 | 20 | 257 | 1.6 | 3.2 | 0.00 | 0.00 | 0.00 | 62 | 1011.3 |
| 20260502224223 | 20 | 244 | 3.2 | 4.8 | 0.00 | 0.00 | 0.00 | 61 | 1011.2 |
| 20260502223720 | 20 | 114 | 1.6 | 3.2 | 0.00 | 0.00 | 0.00 | 63 | 1011.4 |
| 20260502223218 | 20 | 174 | 1.6 | 3.2 | 0.00 | 0.00 | 0.00 | 61 | 1011.4 |
| 20260502222715 | 20 | 85 | 1.6 | 4.8 | 0.00 | 0.00 | 0.00 | 65 | 1011.6 |
| 20260502222212 | 21 | 176 | 8.0 | 11.3 | 0.00 | 0.00 | 0.00 | 61 | 1011.7 |
| 20260502221708 | 20 | 188 | 3.2 | 3.2 | 0.00 | 0.00 | 0.00 | 61 | 1011.6 |
| 20260502221205 | 22 | 181 | 3.2 | 3.2 | 0.00 | 0.00 | 0.00 | 59 | 1011.6 |
| 20260502220701 | 21 | 127 | 0.0 | 1.6 | 0.00 | 0.00 | 0.00 | 59 | 1011.8 |
| 20260502220157 | 20 | 297 | 1.6 | 3.2 | 0.00 | 0.00 | 0.00 | 63 | 1011.8 |
| 20260502215654 | 21 | 201 | 1.6 | 3.2 | 0.00 | 0.00 | 0.00 | 60 | 1012.0 |
| 20260502215151 | 20 | 178 | 4.8 | 9.7 | 0.00 | 0.00 | 0.00 | 62 | 1011.9 |
| 20260502214649 | 19 | 165 | 4.8 | 6.4 | 0.00 | 0.00 | 0.00 | 63 | 1012.1 |
| 20260502214146 | 18 | 87 | 6.4 | 6.4 | 0.00 | 0.00 | 0.00 | 65 | 1012.5 |
| 20260502213643 | 20 | 134 | 3.2 | 3.2 | 0.00 | 0.00 | 0.00 | 64 | 1012.3 |
| 20260502213140 | 19 | 128 | 1.6 | 1.6 | 0.00 | 0.00 | 0.00 | 61 | 1012.3 |
| 20260502212639 | 18 | 68 | 0.0 | 1.6 | 0.00 | 0.00 | 0.00 | 65 | 1012.5 |
| 20260502212137 | 17 | 122 | 0.0 | 1.6 | 0.00 | 0.00 | 0.00 | 66 | 1012.3 |
| 20260502211632 | 17 | 85 | 1.6 | 1.6 | 0.00 | 0.00 | 0.00 | 66 | 1012.3 |
| 20260502211129 | 18 | 66 | 3.2 | 4.8 | 0.00 | 0.00 | 0.00 | 66 | 1012.7 |
| 20260502210627 | 17 | 14 | 0.0 | 1.6 | 0.00 | 0.00 | 0.00 | 66 | 1012.5 |
| 20260502210124 | 18 | 89 | 3.2 | 4.8 | 0.00 | 0.00 | 0.00 | 65 | 1012.9 |
| 20260502205620 | 18 | 292 | 0.0 | 1.6 | 0.00 | 0.00 | 0.00 | 65 | 1012.6 |
| 20260502205117 | 17 | 35 | 0.0 | 0.0 | 0.00 | 0.00 | 0.00 | 67 | 1012.9 |
| 20260502204614 | 17 | 103 | 0.0 | 1.6 | 0.00 | 0.00 | 0.00 | 68 | 1012.9 |
| 20260502204112 | 18 | 23 | 3.2 | 4.8 | 0.00 | 0.00 | 0.00 | 66 | 1012.9 |
| 20260502203609 | 17 | 97 | 3.2 | 4.8 | 0.00 | 0.00 | 0.00 | 67 | 1013.0 |
| 20260502203106 | 17 | 84 | 0.0 | 1.6 | 0.00 | 0.00 | 0.00 | 67 | 1013.1 |
| 20260502202601 | 16 | 22 | 4.8 | 4.8 | 0.00 | 0.00 | 0.00 | 69 | 1013.2 |
| 20260502202100 | 17 | 33 | 4.8 | 6.4 | 0.00 | 0.00 | 0.00 | 65 | 1013.4 |
| 20260502201555 | 18 | 300 | 3.2 | 4.8 | 0.00 | 0.00 | 0.00 | 64 | 1013.6 |
| 20260502201052 | 18 | 50 | 3.2 | 4.8 | 0.00 | 0.00 | 0.00 | 65 | 1013.4 |
| 20260502200548 | 17 | 211 | 3.2 | 6.4 | 0.00 | 0.00 | 0.00 | 67 | 1013.5 |
| 20260502200046 | 17 | 49 | 0.0 | 0.0 | 0.00 | 0.00 | 0.00 | 66 | 1013.8 |